Location: Domont
(49.0278°N, 2.3264°E)
Time: 09:51:37
(UTC+00:00)

deb Kosmos-249 - Visible Passes

Search period start: 17 August 2022 00:00
Search period end: 27 August 2022 00:00
Orbit: 869 x 1599 km, 65.7° (Epoch: 16 August)

Date Brightness Start Highest point End Pass type
(mag) Time Alt. Az. Time Alt. Az. Time Alt. Az.
17 Aug ? 20:08:02 10° NW 20:14:39 22° W 20:20:49 10° SW visible
18 Aug ? 20:00:32 10° NW 20:06:50 21° W 20:12:45 10° SW visible
19 Aug ? 19:53:03 10° WNW 19:59:02 19° W 20:04:37 10° SW visible
20 Aug ? 19:45:36 10° WNW 19:51:12 18° W 19:56:29 10° SW visible
21 Aug ? 19:38:11 10° WNW 19:43:23 17° W 19:48:18 10° SW visible
22 Aug ? 19:30:48 10° WNW 19:35:33 15° W 19:40:04 10° SW visible
23 Aug ? 19:23:29 10° WNW 19:27:42 14° W 19:31:45 10° WSW visible
24 Aug ? 19:16:16 10° WNW 19:19:52 13° W 19:23:21 10° WSW visible
